Retour au catalogue

COSMOS 1818 COOLANT

LostLEO
NORAD 50782·DEBRIS·🇷🇺 Russia

Lancé Feb 1, 1987 depuis Baikonur Cosmodrome

Loading…

Prochains Passages (prochaines 24 heures)

TLE

PériméSource: Space-Track

Époque: Oct 18, 2022, 14:06 UTC

1 50782U 87011AX  22291.58775875  .00000586  00000-0  24453-3 0  9997
2 50782  65.0142   6.1960 0014207 250.5673 109.3878 14.34132012413337

Suivez COSMOS 1818 COOLANT en temps réel avec AllMySat

Download on the App Store